User: anonymous   Login
Location: Unspecified
(0.0000°N, 0.0000°E)
Time: 05:30:37
(UTC+00:00)
Language:

FO-29 - Orbit

View from above orbital plane
View from above orbital plane
View from above satellite
View from above satellite

Ground track
Ground track

The orbit data is extracted from the following two-line orbital elements,

1 24278U 96046B   17177.92424310 -.00000017 +00000-0 +21636-4 0  9997
2 24278 098.5625 059.8860 0349572 312.3212 044.8790 13.53076769029943
Epoch (UTC): 26 June 2017 22:10:54
Eccentricity: 0.0349572
inclination: 98.5625°
perigee height: 801 km
apogee height: 1321 km
right ascension of ascending node: 59.8860°
argument of perigee: 312.3212°
revolutions per day: 13.53076769
mean anomaly at epoch: 44.8790°
orbit number at epoch: 2994

The dashed part of the orbit path shows where the satellite is in the earth's shadow,  

DLR